logo
Search for airport 
image banner adimage banner adimage banner ad
image banner ad

LOBR - Klinik Landstrasse Kh

Located in District Wien, Austria

ICAO - , IATA -

Data provided by Airmate  

General information

Coordinates: N48°11'44" E16°23'26"
Elevation is 784 feet MSL.
 
View others Airports in Vienna

Operational data

Special qualification required
Current time UTC:
Current local time:
Weather at : LOWW - Wien-Schwechat ( 16 km )
METAR: LOWW 191650Z 19006KT 140V270 9999 -RA FEW030TCU SCT042 BKN050 09/03 Q1009 TEMPO 22015G25KT SHRA
TAF: TAF LOWW 191415Z 1915/2021 27010KT 9999 FEW040 TX10/2010Z TN05/2021Z TEMPO 1915/1916 FEW040CB PROB40 TEMPO 1915/1920 20010KT TEMPO 1916/2003 -RA PROB30 TEMPO 1916/2003 SHRA TEMPO 1920/1924 18007KT BECMG 2000/2002 27010KT TEMPO 2010/2017 31020G30KT SHRA FEW040CB SCT050 PROB30 TEMPO 2012/2016 TSRA TEMPO 2017/2021 34020G30KT -SHRA
View NOTAMs / SUP AIP / TFR affecting this airport [VIEW]
Communications frequencies: [VIEW]

Runways:

Airport contact information

Address: District Wien Austria

Satellite view of LOBR